Location: Unspecified
(56.5167°N, 0.0000°E)
Time: 21:57:26
(UTC+02:00)

Resurs 1-4 Rocket - Visible Passes

Search period start: 16 May 2021 00:00
Search period end: 26 May 2021 00:00
Orbit: 799 x 815 km, 98.6° (Epoch: 16 May)

Date Brightness Start Highest point End Pass type
(mag) Time Alt. Az. Time Alt. Az. Time Alt. Az.
16 May 3.8 02:37:23 10° NE 02:41:41 25° E 02:45:57 10° SE visible
16 May 2.2 04:16:46 10° NNE 04:22:02 72° WNW 04:27:16 10° SSW visible
17 May 4.2 02:13:21 10° NE 02:16:42 17° E 02:20:03 10° SE visible
17 May 2.2 03:52:06 10° NNE 03:57:24 79° ESE 04:02:29 11° SSW visible
18 May 4.5 01:50:11 10° ENE 01:51:38 11° E 01:53:04 10° E visible
18 May 2.6 03:27:30 10° NNE 03:32:41 54° E 03:37:37 11° S visible
19 May 3.2 03:03:00 10° NNE 03:07:54 37° E 03:12:44 10° SSE visible
20 May 3.7 02:38:40 10° NE 02:43:01 25° E 02:47:20 10° SE visible
20 May 2.2 04:18:05 10° NNE 04:23:21 71° WNW 04:28:36 10° SSW visible
21 May 4.2 02:14:37 10° NE 02:18:02 17° E 02:21:28 10° SE visible
21 May 2.2 03:53:25 10° NNE 03:58:44 81° ESE 04:04:01 10° SSW visible
22 May 4.5 01:51:21 10° ENE 01:52:59 11° E 01:54:37 10° E visible
22 May 2.6 03:28:49 10° NNE 03:34:01 55° E 03:39:11 10° S visible
23 May 3.2 03:04:19 10° NNE 03:09:14 37° E 03:14:08 10° SSE visible
24 May 3.7 02:39:58 10° NE 02:44:22 26° E 02:48:43 10° SSE visible
24 May 2.3 04:19:25 10° NNE 04:24:41 69° WNW 04:29:55 10° SSW visible
25 May 4.2 02:15:53 10° NE 02:19:23 18° E 02:22:54 10° SE visible
25 May 2.2 03:54:44 10° NNE 04:00:03 83° ESE 04:05:21 10° SSW visible
